Location: Castillon
(43.0896°N, 0.2156°E)
Time: 15:08:13
(UTC+00:00)

Cosmos 1346 Rocket - Pass Details

Date: 16 June 2021
Orbit: 526 x 551 km, 81.2° (Epoch: 31 July)

Event Time Altitude Azimuth Distance (km) Brightness Sun altitude
Exits shadow 22:18:25 36° 98° (E) 878 3.5 -19.5°
Maximum altitude 22:18:32 36° 94° (E) 877 3.6 -19.5°
Drops below altitude 10° 22:22:13 10° 27° (NNE) 1,825 6.0 -19.8°
Sets 22:24:31 0° 19° (NNE) 2,727 7.1 -20.0°
